sat.trackr.live / text

‹ back to catalog

STARLINK-2285

NORAD 48019 · 2021-024AU

PAYLOAD ACTIVE UNKNOWN

§ Identity

Operator
Country
US
Launch date
2021-03-24
Launch site
AFETR
Launch vehicle
Mass (kg)
RCS (m²)

Purposes: comms

External: N2YO · Heavens-Above · Gunter

§ Orbital elements

Epoch: 2026-09-19T23:33:56.020032Z

Period
94.01 min
Inclination
53.1592°
Eccentricity
0.0001170
Mean motion
15.31708994 rev/d
Perigee alt
469.9 km
Apogee alt
471.5 km
Semi-major
6,848.9 km
B*
6.5259e-5
RAAN
122.6682°
Arg perigee
96.2163°
Mean anomaly
263.8972°
Rev number
30,469

§ Raw data

STARLINK-22851 48019U 21024AU  26262.98189838  .00001661  00000+0  65259-4 0  99972 48019  53.1592 122.6682 0001170  96.2163 263.8972 15.31708994304698

JSON: /api/v1/satellites/48019 · /tle

For live sub-satellite position, see the globe view (requires WebGL).

§ Visibility from observer

Set your observer location to see the next 7 days of passes ≥ 10°. The values pass through the URL so the page stays shareable.

No JS? Fill the form by hand. The geolocation button needs JavaScript.